パンスターズ彗星

C/2020 H8 ( PanSTARRS )

English version
Home page
Updated on July 18, 2021

---------------------------------------------------------------------

・ プロフィール

発見日 2020年4月30日
発見光度 20.7等
発見者 R. Wainscoat (Pan-STARRS2 1.8-m Ritchey-Chretien reflector at Haleakala)

・ 写真集

・ 軌道要素

Epoch 2021 July 5.0 TT = JDT 2459400.5
T 2020 June 4.44236 TT                                  Rudenko
q   4.6752707            (2000.0)            P               Q
z  +0.0016686      Peri.  128.93463     -0.11006782     -0.38415275
 +/-0.0000022      Node    68.40837     -0.88516393     -0.38160437
e   0.9921989      Incl.   99.64563     +0.45207289     -0.84071682
From 200 observations 2020 Apr. 30-2021 June 11, mean residual 0".4.

・ 光度変化

        m1 = 10.0 + 5 logΔ + 10.0 log r

---------------------------------------------------------------------

軌道要素はM.P.E.C. 2021-N06に掲載されたものです。
光度グラフはComet for Windowsで作成したものです。

---------------------------------------------------------------------

Copyright(C) Seiichi Yoshida (comet@aerith.net). All rights reserved.